Tracking 27380 objects as of 6-Jun-2023
HD Live streaming from Space Station
objects crossing your sky now

OPS 4682 DEB

Track OPS 4682 DEB now!
10-day predictions


NORAD ID: 14715
Int'l Code: 1965-027N
Perigee: 1,248.2 km
Apogee: 1,322.6 km
Inclination: 90.3 °
Period: 111.1 minutes
Semi major axis: 7656 km
RCS: 0.0213 m2 (small)
Launch date: April 3, 1965
Source: United States (US)
Launch site: AIR FORCE WESTERN TEST RANGE (AFWTR)

Note: This is SATELLITE DEBRIS
Your satellite tracking list
Your tracking list is empty




NASA's NSSDC Master Catalog

Two Line Element Set (TLE):
1 14715U 65027N   23155.96068016  .00000623  00000-0  21572-2 0  9990
2 14715  90.2646 323.9978 0048621 159.2332 354.1316 12.95888588865862
Source of the keplerian elements: AFSPC